RH
39 38 36 35 37 37 37 38 36 35 36 40 37 35 31 30 33 31 27 22 16 14 13 13 14 14 14 12 11 12 16 22 33 41 48 46 47 46
44 43 43 42 43 45 44 44 49 47 41 41 40 42 42 39 38 39 38 29 23 19 14 12 12 13 12 14 13 13 15 24 34 46 50 47 46 46
56 57 50 50 50 52 54 53 56 59 49 48 47 54 53 46 44 45 44 35 28 22 18 14 12 12 12 13 14 14 16 23 34 44 51 52 50 44
64 83 84 65 63 62 64 67 69 66 59 57 64 65 57 57 55 50 57 44 34 26 21 18 14 13 13 13 14 15 16 24 38 47 48 48 44 43
82 86 92 94 72 72 75 79 82 83 74 59 63 72 69 64 59 61 61 49 44 34 29 22 16 14 15 14 15 15 16 21 46 50 52 49 45 44
60 64 92 97 94 91 79 88 85 95 96 70 73 68 69 67 66 60 62 65 58 46 26 22 19 17 17 16 16 16 18 25 48 54 52 51 49 48
93 56 92 83 80 94 96 96 95 100 96 95 96 94 91 80 75 83 81 77 44 34 27 23 22 19 21 17 18 20 22 44 58 58 55 53 49 47
94 91 95 94 93 95 97 97 99 97 97 95 97 97 97 98 91 72 43 47 48 38 29 27 24 28 27 22 23 29 51 61 62 62 60 54 50 49
94 97 96 96 97 98 98 97 98 96 98 98 99 97 96 87 67 64 62 57 54 53 54 56 50 39 34 28 27 44 60 63 66 67 61 55 53 52
98 96 93 96 97 98 98 97 98 97 97 96 97 97 96 97 89 80 69 64 61 62 52 43 36 33 34 33 55 64 65 66 70 68 62 57 54 53
96 97 97 96 96 96 98 98 97 98 98 98 97 95 96 95 98 86 79 72 71 68 64 48 48 43 56 74 70 71 75 77 72 68 66 61 56 51
97 98 98 98 99 97 98 98 98 99 98 97 75 79 78 86 86 79 72 64 52 46 39 39 46 75 85 81 77 81 85 82 75 67 64 58 56 55
97 98 96 99 99 99 96 99 99 99 96 90 76 75 80 82 59 59 57 49 44 43 42 61 80 84 90 98 98 94 93 88 81 73 68 68 65 60
97 97 95 98 99 99 97 100 100 96 94 80 59 78 92 67 55 82 74 56 44 47 75 86 91 98 100 100 100 100 98 93 83 74 68 62 56 50
98 96 95 97 98 97 95 93 88 79 90 94 64 63 57 55 55 52 49 51 83 88 89 96 100 100 100 100 100 100 94 88 74 67 61 56 54 52
65 70 76 87 99 96 89 70 66 64 64 71 75 67 80 100 89 84 93 93 99 100 100 100 100 99 95 96 98 97 88 70 68 63 60 60 56 50
40 43 45 67 72 72 78 69 66 64 67 66 88 97 95 91 95 100 96 99 100 100 100 100 99 100 100 100 94 97 85 83 74 68 62 58 50 39
56 59 63 64 65 66 62 62 69 75 82 98 100 99 99 100 100 94 99 100 100 100 100 100 100 100 100 95 100 97 95 90 84 76 69 50 34 40
52 57 65 62 59 62 70 91 100 100 100 100 100 100 100 96 95 100 100 100 100 100 100 100 100 98 93 96 94 100 100 97 86 71 57 45 40 45
94 98 99 96 95 100 100 100 100 100 100 100 100 100 100 100 100 100 100 100 100 100 100 100 100 100 93 99 96 100 100 98 74 64 57 52 64 68
97 98 99 99 100 100 100 100 100 100 100 100 100 100 100 100 100 100 100 100 100 100 100 100 100 99 100 100 100 96 73 82 83 69 66 74 78 74
100 100 100 100 100 100 100 100 100 100 100 100 100 100 100 100 100 100 100 100 100 100 100 100 100 100 99 73 52 52 69 82 80 67 91 99 86 59
100 100 100 100 100 100 100 100 100 100 100 100 100 100 100 100 100 100 100 100 100 100 100 91 63 39 41 38 54 65 81 98 74 86 95 81 47 30
Wind_Speed
44 43 43 41 41 40 40 40 40 40 40 39 40 39 38 38 40 41 42 42 43 43 43 43 44 43 42 40 38 37 38 38 36 39 39 36 34 31
49 48 49 47 46 46 45 45 44 45 45 42 39 40 41 43 42 43 44 46 46 47 48 48 46 48 45 43 41 42 42 41 42 42 43 39 38 37
53 53 53 53 51 53 52 50 49 49 49 49 47 47 45 45 45 46 46 48 48 49 50 51 50 50 49 46 45 45 45 48 48 48 47 45 42 42
57 59 57 59 58 58 57 56 55 53 52 49 48 48 48 47 46 47 47 48 49 50 52 53 53 51 50 49 49 46 47 49 51 51 50 51 49 48
64 65 61 62 61 62 62 61 60 58 58 55 53 51 50 48 48 48 49 49 50 51 53 56 53 54 51 50 51 49 50 52 54 52 51 51 52 50
70 73 69 64 65 64 61 65 66 67 61 58 56 55 52 52 51 50 50 51 52 53 53 53 54 54 55 53 52 53 53 55 55 53 53 51 51 51
80 77 74 68 76 77 70 64 69 73 70 62 56 56 56 52 54 55 52 52 53 53 51 52 55 56 56 54 54 54 57 56 54 54 51 51 51 52
76 81 75 72 68 61 65 64 73 73 67 52 62 64 63 60 51 49 50 52 54 54 52 51 53 55 57 56 55 57 57 56 56 53 51 52 53 55
67 67 64 62 65 63 68 69 60 56 64 60 60 59 58 50 49 50 53 55 53 50 53 55 57 56 56 58 57 58 58 59 56 54 53 54 55 56
64 67 66 68 73 73 78 68 64 66 66 66 63 56 54 50 49 53 57 54 51 53 55 55 56 56 58 60 59 59 59 59 57 55 55 57 58 59
67 69 69 68 69 65 64 67 68 67 66 58 50 46 46 48 50 52 54 55 55 54 57 57 59 60 60 59 58 59 60 59 57 58 58 59 61 62
85 75 61 59 58 63 51 49 52 50 35 37 40 41 46 49 52 55 56 54 56 56 58 60 60 61 59 59 60 60 59 59 60 60 61 63 66 67
57 51 48 53 53 42 46 46 42 41 41 41 40 44 47 51 55 55 57 57 59 58 60 60 61 60 59 57 57 58 59 60 61 61 63 66 69 71
46 47 45 41 46 41 39 50 52 49 41 45 47 48 56 56 55 56 60 59 60 63 63 61 60 59 58 57 56 57 58 61 62 63 66 68 71 74
42 44 50 43 41 49 47 44 44 41 43 49 51 54 55 55 58 62 62 62 62 63 62 60 58 57 57 57 57 58 60 62 64 67 70 72 74 77
42 43 45 41 44 52 45 41 42 45 47 51 57 58 57 58 62 63 65 64 61 59 58 56 57 58 57 59 60 62 66 67 69 72 74 75 77 78
44 44 45 44 45 47 48 49 50 50 51 53 53 56 62 63 65 62 63 63 59 58 57 57 59 60 61 63 64 67 70 71 74 76 79 79 77 75
46 47 48 48 49 50 53 53 52 53 52 55 59 61 61 62 61 62 61 59 58 58 58 59 60 61 64 65 66 70 71 75 77 79 80 78 73 74
50 50 49 50 52 53 55 56 56 56 58 59 59 59 58 64 65 60 60 58 57 58 60 60 62 64 66 66 68 68 71 75 78 78 77 74 72 70
52 52 53 55 57 58 59 59 59 61 62 63 66 65 62 59 58 57 59 59 61 62 62 63 65 66 68 67 69 67 70 74 75 72 72 72 73 71
55 56 57 59 59 59 59 60 60 60 62 62 62 62 61 60 59 60 62 63 63 64 65 65 65 66 65 68 69 71 70 69 70 71 73 73 72 70
53 55 56 57 58 58 58 58 58 58 58 59 59 59 60 61 62 64 64 63 63 63 64 63 64 68 71 70 69 68 68 68 68 71 71 73 76 73
49 50 51 52 53 54 54 55 57 57 58 59 59 60 61 61 61 61 62 62 64 65 67 70 69 68 66 67 67 66 67 67 68 69 67 69 70 71
Wind_Direction
256 259 261 262 265 267 268 271 275 277 277 276 275 274 273 275 279 283 283 286 287 287 288 287 290 294 297 299 297 297 298 299 298 299 298 296 293 290
255 258 261 262 264 267 269 270 273 276 277 273 271 275 274 276 280 282 283 284 285 285 286 288 290 291 293 294 294 293 294 294 296 298 298 295 293 290
252 258 260 261 263 266 267 267 271 276 276 271 268 272 275 277 279 280 282 283 285 287 289 289 289 290 291 293 294 294 296 298 298 300 298 295 294 291
249 253 257 262 263 265 267 268 270 274 273 268 269 272 275 278 279 280 283 282 285 285 289 291 291 292 293 292 292 294 294 295 297 297 296 296 293 290
249 253 252 256 261 263 266 271 271 269 268 266 269 272 275 277 279 279 281 281 284 286 288 292 292 292 293 292 294 295 294 294 295 295 295 294 292 290
253 255 255 257 257 258 259 267 270 270 266 267 271 272 273 274 277 279 281 283 284 285 289 291 293 295 295 295 294 293 293 292 293 294 294 292 290 290
252 254 261 256 260 264 258 262 266 268 267 261 267 270 270 271 275 277 279 281 283 286 289 292 293 294 295 292 292 294 293 291 292 291 290 289 288 287
252 254 256 258 262 266 265 271 270 271 269 268 267 265 267 275 281 281 280 280 284 284 288 290 289 291 294 291 291 293 292 290 289 287 286 286 286 287
254 257 262 263 262 263 263 268 263 271 260 261 265 264 272 274 274 277 280 281 285 289 289 289 289 288 291 292 293 291 290 289 287 285 285 284 284 283
252 258 257 269 269 268 264 264 262 264 262 263 262 266 265 270 273 277 280 284 287 288 287 290 290 290 292 293 291 290 288 287 285 286 286 285 285 284
251 261 263 263 270 265 268 264 264 263 266 268 269 272 277 280 278 279 284 286 286 286 288 289 290 290 290 290 291 289 287 286 286 287 286 286 285 285
252 257 257 257 257 264 265 267 269 266 262 275 283 282 278 276 279 282 283 286 285 284 286 288 289 291 291 289 289 286 284 284 286 286 287 287 286 287
246 251 252 253 252 247 254 256 251 258 273 290 284 273 271 276 280 281 281 281 281 284 285 288 289 287 285 284 284 283 283 285 287 288 289 289 290 290
272 259 265 248 253 247 251 253 259 277 278 275 277 274 271 275 275 275 277 280 285 285 286 286 284 282 281 282 283 284 286 287 288 290 289 290 292 294
278 272 277 272 250 257 276 279 276 275 265 267 266 267 269 273 276 278 281 281 282 283 282 281 279 279 280 282 284 286 288 290 292 291 293 295 296 298
274 277 275 266 247 264 273 271 267 265 263 264 267 268 268 271 278 280 279 281 279 278 278 278 279 281 284 286 287 289 290 293 294 294 294 296 298 299
262 263 264 263 262 263 262 263 263 263 264 266 268 269 272 276 279 277 277 277 278 277 276 279 281 283 285 288 291 289 292 294 294 295 296 298 300 298
263 262 263 263 264 264 265 266 267 268 269 268 269 273 275 276 274 272 273 276 277 278 279 280 283 284 284 288 287 289 293 292 295 297 298 299 298 297
271 269 267 267 268 270 270 269 269 271 273 274 275 276 272 267 269 271 274 277 279 280 280 281 282 283 285 286 287 290 291 294 297 298 296 296 296 295
269 271 272 271 271 270 270 271 272 273 273 275 277 277 273 271 272 274 275 277 277 279 281 282 284 285 286 287 288 290 292 294 294 293 293 294 295 297
271 271 271 271 272 272 273 274 274 274 274 273 273 272 273 274 275 275 276 278 280 281 282 283 284 286 287 289 292 292 292 291 292 292 294 294 295 296
266 267 268 269 270 270 270 270 270 270 270 270 271 272 273 274 275 276 277 278 280 281 283 283 285 287 290 291 289 289 289 290 292 294 296 296 299 301
265 265 265 266 267 267 268 268 269 269 270 272 273 273 273 274 275 277 279 280 282 283 284 286 287 288 286 286 286 287 289 289 291 294 296 300 303 307